Regional Weather Roundup
Issued by NWS

Home | Current Version | Previous Version | Graphics & Text | Print | Product List | Glossary On
Versions: 1 2 3 4 5 6 7 8 9 10 11 12 13 14 15 16 17 18 19 20 21 22 23 24 25 26 27 28
000
ASUS45 KTFX 262110
RWRMT
MONTANA REGIONAL WEATHER ROUNDUP
NATIONAL WEATHER SERVICE GREAT FALLS MT
300 PM MDT MON JUN 26 2017

NOTE: "FAIR" INDICATES FEW OR NO CLOUDS BELOW 12000 FEET WITH NO
SIGNIFICANT WEATHER AND/OR OBSTRUCTIONS TO VISIBILITY.

MTZ001>007-043-262200-
WEST OF THE DIVIDE

CITY           SKY/WX    TMP DP  RH WIND       PRES   REMARKS
KALISPELL      CLOUDY    81  54  39 S6        29.84F
MISSOULA       MOSUNNY   90  47  22 W6        29.85F
BUTTE          SUNNY     87  30  13 W9G20     30.02F
MULLAN PASS    PTSUNNY   71  42  35 VRB7G17   30.10S
ANACONDA         N/A     86  34  15 W14       29.97F
DEER LODGE       N/A     86  45  23 N8        29.97F
EUREKA           N/A     84  45  24 CALM      29.83S
HAMILTON         N/A     91  46  21 CALM      29.87F
$$

MTZ008-052>055-262200-
SOUTHWEST MONTANA

CITY           SKY/WX    TMP DP  RH WIND       PRES   REMARKS
BOZEMAN        SUNNY     91  46  21 VRB3      29.95F
DILLON         CLOUDY    85  46  25 S15G22    30.00F
W YELLOWSTONE  SUNNY     79  36  21 SW14G20   30.17F
ENNIS          SUNNY     86  32  14 S13G21    30.08F
THREE FORKS      N/A     89  49  25 N1        29.93F
$$

MTZ009-010-012-014-046-048-049-054-262200-
EAST SLOPES AND CENTRAL MONTANA

CITY           SKY/WX    TMP DP  RH WIND       PRES   REMARKS
CUT BANK       CLOUDY    86  46  24 SW8       29.85F
GREAT FALLS    SUNNY     94  41  16 W14G25    29.83F HX  90
MALMSTROM AFB  SUNNY     94  41  15 W15G23    29.83F
HELENA         CLOUDY    93  48  21 N9        29.87F
CHOTEAU          N/A     91  41  17 SW9       29.86F
$$

MTZ011-013-016-021-045-047-050-051-262200-
NORTH CENTRAL MONTANA

CITY           SKY/WX    TMP DP  RH WIND       PRES   REMARKS
HAVRE          SUNNY     94  36  13 S6        29.79F
LEWISTOWN      SUNNY     91  39  16 S16       29.91F
N BAR RANCH      N/A     84  37  18 SW17G28   30.00F
CHINOOK          N/A     91  39  16 SE14G20   29.80F
FORT BENTON      N/A     97  46  17 MISG      29.80F HX  93
$$

MTZ017>020-022>027-061-062-262200-
NORTHEAST MONTANA

CITY           SKY/WX    TMP DP  RH WIND       PRES   REMARKS
GLASGOW        CLOUDY    86  32  14 SE20      29.92F
JORDAN           N/A     89  31  12 S18G26    29.93F
SIDNEY         SUNNY     83  37  19 S9        30.00F
WOLF POINT     PTSUNNY   86  36  16 SE10G21   29.96F
MALTA          SUNNY     86  37  17 S14G24    29.86F
PLENTYWOOD       N/A     81  39  22 S17       30.01F
POPLAR           N/A     84  37  18 S9G18     29.97F
$$

MTZ028>42-056>058-262200-
SOUTHCENTRAL AND SOUTHEAST MONTANA

CITY           SKY/WX    TMP DP  RH WIND       PRES   REMARKS
BAKER          SUNNY     81  33  17 SE18G24   30.06F
BILLINGS       MOSUNNY   91  38  15 S12G18    29.94F
LIVINGSTON     MOSUNNY   83  48  29 S9        29.97F
MILES CITY     CLOUDY    86  31  13 SE13      29.97F
BIG TIMBER     SUNNY     90  39  17 NE10      29.98F
FORSYTH          N/A     88  34  14 E9        29.95F
ROUNDUP          N/A     91  39  16 SE7       29.87F
$$

REGIONAL REPORTS...DAKOTAS

CITY           SKY/WX    TMP DP  RH WIND       PRES   REMARKS
WILLISTON      SUNNY     84  41  21 SE12G17   30.04F
MINOT          SUNNY     74  38  27 SE12      30.10F
DICKINSON      SUNNY     76  29  17 VRB6G20   30.08F
BEACH            N/A     81  30  16 S9G17     30.09F
CROSBY           N/A     75  43  31 S12G18    30.06F
TIOGA            N/A     73  43  33 SE13G24   30.08F
WATFORD CITY     N/A     77  45  31 S14       30.04F
BISMARCK       SUNNY     76  44  32 VRB6      30.14F
GRAND FORKS    MOSUNNY   73  39  29 CALM      30.12F
FARGO          MOSUNNY   74  37  26 W5        30.14F
BUFFALO SD       N/A     80  37  21 SE10      30.04F
RAPID CITY     CLOUDY    78  39  24 SE15      30.13F
$$

REGIONAL REPORTS...WYOMING/IDAHO/WASHINGTON

CITY           SKY/WX    TMP DP  RH WIND       PRES   REMARKS
GILLETTE       SUNNY     85  37  18 S20G25    30.08F
SHERIDAN       SUNNY     87  43  21 SE14      30.02F
BUFFALO WY     SUNNY     84  39  20 SE9       30.10F
CODY           SUNNY     88  33  14 E13G20    30.05F
YELLOWSTONE LA   N/A     75  23  14 VRB5      30.29F
IDAHO FALLS    SUNNY     87  40  19 VRB5      30.05F
SALMON         SUNNY     90  48  24 N10       29.89F
BOISE          SUNNY     95  49  20 NW12      29.83F HX  92
SPOKANE        MOSUNNY   84  52  33 S9        29.85F
$$

REGIONAL REPORTS...ALBERTA

CITY           SKY/WX    TMP DP  RH WIND       PRES   REMARKS
EDMONTON       PTSUNNY   79  57  47 W2        29.66F
CALGARY        PTSUNNY   88  45  22 S10       29.74F
LETHBRIDGE     PTSUNNY   88  52  29 SW8       29.76F
MEDICINE HAT   PTSUNNY   90  45  20 S22G32    29.73F
WATERTON GATE    N/A     82  45  26 SW15G24     N/A
CARDSTON         N/A     86  39  19 SW8         N/A
ONEFOUR          N/A     88  41  19 S14G32      N/A
$$

REGIONAL REPORTS...SASKATCHEWAN

CITY           SKY/WX    TMP DP  RH WIND       PRES   REMARKS
SWIFT CURRENT  CLOUDY    79  41  25 S24G32    29.87F
REGINA         PTSUNNY   77  46  33 S21G26    29.97F
SASKATOON      PTSUNNY   75  48  38 S17G25    29.91F
CYPRESS HILLS    N/A     79  37  22 S16G24      N/A
VAL MARIE        N/A     88  30  12 S24G31      N/A
ROCKGLEN         N/A     81  37  21 S17G29      N/A
$$




USA.gov is the U.S. government's official web portal to all federal, state and local government web resources and services.